When you browse on this site, cookies collect data to enhance your experience and personalize the content and advertising you see.
Visit our Privacy Policy to learn more. By continuing to use the site, you agree to this use of cookies and data.
  • In Latvia
  • List of Countries
  • For 7 days
  • Water Temperature
  • Satellite Maps
  • Weather Map
  • Weather Widgets
  • user-avatar
    Login

    Hourly Weather Malanje

    Today, 19 May, Sunday

    Time Temperature Precipitation Wind Pressure Humidity
    00:00 +19°C° 0 mm 0 mps 665 mmHg 61%
    01:00 +21°C° 0 mm 1 mps 665 mmHg 71%
    02:00 +21°C° 0 mm 1 mps 665 mmHg 78%
    03:00 +20°C° 0 mm 1 mps 665 mmHg 84%
    04:00 +18°C° 0 mm 0 mps 665 mmHg 91%
    05:00 +18°C° 0 mm 0 mps 665 mmHg 90%
    06:00 +18°C° 0 mm 0 mps 666 mmHg 89%
    07:00 +19°C° 0 mm 0 mps 666 mmHg 89%
    08:00 +21°C° 0 mm 0 mps 667 mmHg 75%
    09:00 +26°C° 0 mm 1 mps 667 mmHg 61%
    10:00 +28°C° 0 mm 2 mps 668 mmHg 47%
    11:00 +29°C° 0 mm 2 mps 668 mmHg 41%
    12:00 +30°C° 0 mm 2 mps 667 mmHg 36%
    13:00 +31°C° 0 mm 2 mps 667 mmHg 31%
    14:00 +31°C° 0 mm 2 mps 666 mmHg 32%
    15:00 +31°C° 0 mm 1 mps 666 mmHg 34%
    16:00 +30°C° 0 mm 1 mps 665 mmHg 36%
    17:00 +28°C° 0 mm 1 mps 665 mmHg 40%
    18:00 +24°C° 0 mm 0 mps 665 mmHg 44%
    19:00 +21°C° 0 mm 0 mps 665 mmHg 48%
    20:00 +21°C° 0 mm 0 mps 665 mmHg 49%
    21:00 +20°C° 0 mm 0 mps 666 mmHg 50%
    22:00 +20°C° 0 mm 0 mps 666 mmHg 51%
    23:00 +19°C° 0 mm 0 mps 666 mmHg 53%

    Tomorrow, 20 May, Monday

    Time Temperature Precipitation Wind Pressure Humidity
    00:00 +21°C° 0 mm 1 mps 666 mmHg 54%
    01:00 +20°C° 0 mm 1 mps 666 mmHg 56%
    02:00 +19°C° 0 mm 1 mps 666 mmHg 64%
    03:00 +19°C° 0 mm 1 mps 665 mmHg 72%
    04:00 +18°C° 0 mm 1 mps 665 mmHg 80%
    05:00 +18°C° 0 mm 1 mps 665 mmHg 78%
    06:00 +19°C° 0 mm 1 mps 666 mmHg 77%
    07:00 +19°C° 0 mm 1 mps 666 mmHg 75%
    08:00 +22°C° 0 mm 1 mps 667 mmHg 63%
    09:00 +24°C° 0 mm 2 mps 667 mmHg 52%
    10:00 +27°C° 0 mm 2 mps 668 mmHg 40%
    11:00 +29°C° 0 mm 2 mps 668 mmHg 36%
    12:00 +30°C° 0 mm 2 mps 667 mmHg 31%
    13:00 +32°C° 0 mm 2 mps 667 mmHg 27%
    14:00 +31°C° 0 mm 2 mps 666 mmHg 29%
    15:00 +31°C° 0 mm 1 mps 665 mmHg 31%
    16:00 +31°C° 0 mm 1 mps 665 mmHg 33%
    17:00 +28°C° 0 mm 1 mps 665 mmHg 36%
    18:00 +26°C° 0 mm 1 mps 665 mmHg 39%
    19:00 +23°C° 0 mm 1 mps 664 mmHg 43%
    20:00 +23°C° 0 mm 1 mps 665 mmHg 42%
    21:00 +22°C° 0 mm 1 mps 665 mmHg 41%
    22:00 +21°C° 0 mm 1 mps 666 mmHg 40%
    23:00 +21°C° 0 mm 1 mps 665 mmHg 42%

    Day after tomorrow, 21 May, Tuesday

    Time Temperature Precipitation Wind Pressure Humidity
    00:00 +20°C° 0 mm 1 mps 665 mmHg 44%
    01:00 +19°C° 0 mm 1 mps 664 mmHg 45%
    02:00 +19°C° 0 mm 1 mps 664 mmHg 48%
    03:00 +18°C° 0 mm 1 mps 664 mmHg 51%
    04:00 +18°C° 0 mm 1 mps 664 mmHg 54%
    05:00 +18°C° 0 mm 1 mps 664 mmHg 55%
    06:00 +18°C° 0 mm 1 mps 665 mmHg 56%
    07:00 +18°C° 0 mm 1 mps 665 mmHg 58%
    08:00 +21°C° 0 mm 1 mps 666 mmHg 52%
    09:00 +24°C° 0 mm 2 mps 667 mmHg 46%
    10:00 +27°C° 0 mm 2 mps 667 mmHg 40%
    11:00 +29°C° 0 mm 2 mps 667 mmHg 36%
    12:00 +30°C° 0 mm 2 mps 667 mmHg 33%
    13:00 +32°C° 0 mm 2 mps 666 mmHg 30%
    14:00 +31°C° 0 mm 2 mps 666 mmHg 32%
    15:00 +31°C° 0 mm 1 mps 665 mmHg 34%
    16:00 +31°C° 0 mm 1 mps 665 mmHg 36%
    17:00 +28°C° 0 mm 1 mps 665 mmHg 41%
    18:00 +26°C° 0 mm 1 mps 665 mmHg 45%
    19:00 +22°C° 0 mm 0 mps 665 mmHg 50%
    20:00 +21°C° 0 mm 0 mps 665 mmHg 50%
    21:00 +21°C° 0 mm 0 mps 665 mmHg 51%
    22:00 +20°C° 0 mm 0 mps 666 mmHg 52%
    23:00 +22°C° 0 mm 1 mps 665 mmHg 57%

    22 May, Wednesday

    Time Temperature Precipitation Wind Pressure Humidity
    00:00 +21°C° 0 mm 1 mps 665 mmHg 62%
    01:00 +19°C° 0 mm 2 mps 665 mmHg 67%
    02:00 +19°C° 0 mm 2 mps 665 mmHg 77%
    03:00 +19°C° 0 mm 2 mps 665 mmHg 86%
    04:00 +18°C° 0 mm 2 mps 664 mmHg 96%
    05:00 +19°C° 0 mm 2 mps 665 mmHg 95%
    06:00 +20°C° 0 mm 1 mps 666 mmHg 95%
    07:00 +20°C° 0 mm 1 mps 666 mmHg 95%
    08:00 +23°C° 0 mm 1 mps 667 mmHg 83%
    09:00 +26°C° 0 mm 1 mps 668 mmHg 71%
    10:00 +29°C° 0 mm 1 mps 668 mmHg 59%
    11:00 +28°C° 0 mm 0 mps 668 mmHg 52%
    12:00 +30°C° 0 mm 0 mps 668 mmHg 45%
    13:00 +32°C° 0 mm 0 mps 667 mmHg 38%
    14:00 +31°C° 0 mm 0 mps 667 mmHg 39%
    15:00 +30°C° 0 mm 0 mps 666 mmHg 40%
    16:00 +28°C° 0 mm 0 mps 665 mmHg 40%
    17:00 +26°C° 0 mm 0 mps 665 mmHg 45%
    18:00 +26°C° 0 mm 1 mps 665 mmHg 50%
    19:00 +24°C° 0 mm 1 mps 665 mmHg 55%
    20:00 +24°C° 0 mm 1 mps 666 mmHg 60%
    21:00 +23°C° 0 mm 1 mps 666 mmHg 65%
    22:00 +22°C° 0 mm 1 mps 666 mmHg 69%
    23:00 +22°C° 0 mm 1 mps 666 mmHg 74%

    23 May, Thursday

    Time Temperature Precipitation Wind Pressure Humidity
    00:00 +21°C° 0 mm 1 mps 665 mmHg 79%
    01:00 +21°C° 0 mm 1 mps 665 mmHg 83%
    02:00 +20°C° 0 mm 1 mps 664 mmHg 87%
    03:00 +20°C° 0 mm 1 mps 664 mmHg 90%
    04:00 +17°C° 0 mm 0 mps 664 mmHg 94%
    05:00 +18°C° 0 mm 0 mps 664 mmHg 92%
    06:00 +18°C° 0 mm 0 mps 665 mmHg 90%
    07:00 +18°C° 0 mm 0 mps 665 mmHg 89%
    08:00 +23°C° 0 mm 1 mps 666 mmHg 76%
    09:00 +26°C° 0 mm 1 mps 667 mmHg 63%
    10:00 +29°C° 0 mm 1 mps 667 mmHg 51%
    11:00 +30°C° 0 mm 1 mps 667 mmHg 47%
    12:00 +30°C° 0 mm 2 mps 666 mmHg 44%
    13:00 +31°C° 0 mm 2 mps 665 mmHg 41%
    14:00 +31°C° 0 mm 2 mps 665 mmHg 41%
    15:00 +31°C° 0 mm 1 mps 665 mmHg 41%
    16:00 +31°C° 0 mm 1 mps 664 mmHg 41%
    17:00 +29°C° 0 mm 1 mps 664 mmHg 46%
    18:00 +27°C° 0 mm 1 mps 665 mmHg 51%
    19:00 +23°C° 0 mm 0 mps 665 mmHg 55%
    20:00 +24°C° 0 mm 1 mps 665 mmHg 56%
    21:00 +24°C° 0 mm 1 mps 665 mmHg 58%
    22:00 +24°C° 0 mm 1 mps 666 mmHg 59%
    23:00 +24°C° 0 mm 1 mps 665 mmHg 61%

    24 May, Friday

    Time Temperature Precipitation Wind Pressure Humidity
    00:00 +23°C° 0 mm 1 mps 665 mmHg 64%
    01:00 +22°C° 0 mm 1 mps 665 mmHg 67%
    02:00 +21°C° 0 mm 1 mps 664 mmHg 72%
    03:00 +21°C° 0 mm 1 mps 664 mmHg 76%
    04:00 +20°C° 0 mm 1 mps 664 mmHg 80%
    05:00 +20°C° 0 mm 1 mps 665 mmHg 79%
    06:00 +21°C° 0 mm 1 mps 665 mmHg 78%
    07:00 +21°C° 0 mm 1 mps 666 mmHg 77%
    08:00 +24°C° 0 mm 1 mps 666 mmHg 68%
    09:00 +27°C° 0 mm 1 mps 667 mmHg 58%
    10:00 +29°C° 0 mm 1 mps 668 mmHg 48%
    11:00 +30°C° 0 mm 2 mps 667 mmHg 44%
    12:00 +32°C° 0 mm 2 mps 667 mmHg 41%
    13:00 +34°C° 0 mm 2 mps 666 mmHg 37%
    14:00 +32°C° 0 mm 1 mps 666 mmHg 38%
    15:00 +32°C° 0 mm 1 mps 665 mmHg 40%
    16:00 +31°C° 0 mm 1 mps 665 mmHg 41%
    17:00 +29°C° 0 mm 1 mps 665 mmHg 45%
    18:00 +27°C° 0 mm 1 mps 665 mmHg 50%
    19:00 +26°C° 0 mm 1 mps 665 mmHg 54%
    20:00 +25°C° 0 mm 1 mps 666 mmHg 55%
    21:00 +25°C° 0 mm 1 mps 666 mmHg 56%
    22:00 +23°C° 0 mm 0 mps 666 mmHg 57%
    23:00 +22°C° 0 mm 0 mps 666 mmHg 59%
    Show more